Regional Weather Roundup
Issued by NWS

Home | Current Version | Previous Version | Graphics & Text | Print | Product List | Glossary On
Versions: 1 2 3 4 5 6 7 8 9 10 11 12 13 14 15 16 17 18 19 20 21 22 23 24 25 26 27 28 29 30 31 32 33 34 35 36 37 38 39 40 41 42 43 44 45 46 47 48 49 50
000
ASUS44 KMEG 010300
RWRTN
TENNESSEE HOURLY STATE WEATHER ROUNDUP
NATIONAL WEATHER SERVICE MEMPHIS TN
1000 PM CDT WED AUG 31 2016

TNZ002-004-019-021-049-052-054-088>092-010400-
WEST TENNESSEE

CITY           SKY/WX    TMP DP  RH WIND       PRES   REMARKS
MEMPHIS INTL   PTCLDY    86  72  62 NE9       29.96R HX  92
NWS MEMPHIS      N/A     83 N/A N/A MISG        N/A
JACKSON        CLEAR     77  74  90 CALM      29.96S
DYERSBURG      CLEAR    N/A N/A N/A MISG      29.97R
UNION CITY     CLEAR     75  73  94 N7        29.97R
PARIS          CLEAR     73  70  88 N3        29.98S
LEXINGTON      CLEAR     75  73  94 CALM      29.95S
$$

TNZ008-025-027-028-033-062-065-066-010400-
NORTH MIDDLE TENNESSEE

CITY           SKY/WX    TMP DP  RH WIND       PRES   REMARKS
NASHVILLE      PTCLDY    81  71  71 NE6       29.96S
CLARKSVILLE    CLEAR     76  70  82 N5        29.96R
SMYRNA         CLEAR     81  73  78 CALM      29.96R
COOKEVILLE     CLEAR     77  72  83 N3        29.97S
CROSSVILLE     CLEAR     72  70  93 N3        30.03R
$$

TNZ061-075-076-078-094-096-097-010400-
SOUTH MIDDLE TENNESSEE

CITY           SKY/WX    TMP DP  RH WIND       PRES   REMARKS
COLUMBIA       CLEAR    N/A N/A N/A CALM      29.95S
SHELBYVILLE    CLEAR     75  73  94 CALM      29.98R
$$

TNZ017-018-042-046-047-010400-
NORTHEAST TENNESSEE

CITY           SKY/WX    TMP DP  RH WIND       PRES   REMARKS
TRI CITIES     CLOUDY    73  68  84 CALM      29.98S
$$

TNZ012-013-036-069-073-074-010400-
CENTRAL EAST TENNESSEE

CITY           SKY/WX    TMP DP  RH WIND       PRES   REMARKS
KNOXVILLE      PTCLDY    80  68  66 W5        29.94R
OAK RIDGE      CLOUDY    78  69  73 CALM      29.96S
GATLINBURG     PTCLDY    75  66  73 CALM      29.95S
$$

TNZ083-085-099-010400-
SOUTHEAST TENNESSEE

CITY           SKY/WX    TMP DP  RH WIND       PRES   REMARKS
CHATTANOOGA    PTCLDY    82  66  58 N5        29.95R
$$

SKY/WX REPORTED AS FAIR MEANS FEW OR NO CLOUDS BELOW
12 THOUSAND FEET.





USA.gov is the U.S. government's official web portal to all federal, state and local government web resources and services.